Regional Weather Roundup
Issued by NWS

Home | Current Version | Previous Version | Text Only | Print | Product List | Glossary Off
Versions: 1 2 3 4 5 6 7 8 9 10 11 12 13 14 15 16 17 18 19 20 21 22 23 24 25 26 27 28 29 30 31 32 33 34 35 36 37 38 39 40 41 42 43 44 45 46 47 48 49 50

000
ASUS43 KDMX 221006
RWRIA

WEATHER ROUNDUP FOR IOWA
NATIONAL WEATHER SERVICE DES MOINES IA
500 AM CDT SUN OCT 22 2017

NOTE: "FAIR" INDICATES FEW OR NO CLOUDS BELOW 12,000 FEET WITH NO
SIGNIFICANT WEATHER AND/OR OBSTRUCTIONS TO VISIBILITY.

* - THESE STATIONS ARE NOT NWS STATIONS...THUS NOT UNDER NWS
QUALITY CONTROL.  THEY ALSO DO NOT REPORT WEATHER SUCH
AS PRECIPITATION OR FOG.

IAZ001>003-012>014-020>022-031>034-043>046-221100-
   NORTHWEST IOWA

CITY           SKY/WX    TMP DP  RH WIND       PRES   REMARKS
CHEROKEE *     CLOUDY    41  40  97 CALM      29.99S
DENISON *      CLOUDY    46  41  81 CALM      30.02R
LE MARS *      CLOUDY    39  37  93 CALM      30.00R
ORANGE CITY *  CLOUDY    39  37  93 CALM      29.98S
SHELDON *      CLOUDY    36  34  93 CALM      29.97S
SIOUX CITY     CLOUDY    38  36  92 CALM      30.01R
SPENCER        CLOUDY    42  39  89 NW5       29.98R
STORM LAKE *   CLOUDY    45  39  81 W9        29.98S
$$

IAZ055>058-069>071-079>083-090>094-221100-
   SOUTHWEST IOWA

CITY           SKY/WX    TMP DP  RH WIND       PRES   REMARKS
ATLANTIC *     MOCLDY    48  43  81 CALM      30.01R
AUDUBON *      MOCLDY    48  43  81 CALM      30.01R
CLARINDA *       N/A     50  43  76 NE3       30.04R
COUNCIL BLFS * CLOUDY    46  43  87 W7        30.02R
CRESTON *      MOCLDY    48  46  93 NW3       30.01R
HARLAN  *      MOCLDY    46  43  87 CALM      30.04R
LAMONI         LGT RAIN  49  47  93 N5        30.00R
RED OAK *      CLOUDY    48  43  81 CALM      30.02R
SHENANDOAH *   CLOUDY    50  43  76 SW3       30.04R
$$

IAZ047>049-059>061-072>074-084-221100-
   CENTRAL IOWA

CITY           SKY/WX    TMP DP  RH WIND       PRES   REMARKS
AMES           CLOUDY    50  48  93 W5        29.99R
ANKENY *       CLOUDY    50  46  87 CALM      29.99R
BOONE *        CLOUDY    50  45  81 W7        29.98R
CHARITON *     LGT RAIN  50  46  87 NW5       29.99R
DES MOINES     CLOUDY    51  47  86 NW5       29.99R
GRINNELL*      LGT RAIN  50  47  91 W3        30.00R
KNOXVILLE *    CLOUDY    50  48  93 NW5       29.97R
MARSHALLTOWN   LGT RAIN  50  48  93 W7        29.97R
NEWTON *       CLOUDY    50  48  93 CALM      29.98R
PELLA *        RAIN      50  48  93 NW3       30.00R
PERRY *          N/A     50  46  84 CALM      29.99R
$$

IAZ004>006-015-016-023>025-035-036-221100-
   NORTH CENTRAL IOWA

CITY           SKY/WX    TMP DP  RH WIND       PRES   REMARKS
ALGONA *       CLOUDY    48  41  76 NW5       29.97R
CLARION *      CLOUDY    48  46  93 NW5       29.97R
ESTHERVILLE    CLOUDY    44  41  89 W6        29.96S
FORT DODGE *   CLOUDY    49  42  77 NW3       29.98R
MASON CITY     CLOUDY    48  43  82 W10       29.98R
FOREST CITY *    N/A     48  43  81 W3        29.96R
WEBSTER CITY * CLOUDY    48  45  87 NW5       29.96R
IOWA FALLS *     N/A     50  46  86 CALM      29.97R
$$

IAZ007>011-017>019-026>030-037>042-050>054-066-221100-
   NORTHEAST IOWA

CITY           SKY/WX    TMP DP  RH WIND       PRES   REMARKS
CEDAR RAPIDS   LGT RAIN  52  50  93 NW13      29.94R
CHARLES CITY * CLOUDY    50  48  93 W5        29.96R
CLINTON *      LGT RAIN  61  60  97 NW7       29.87S
DECORAH *      LGT RAIN  50  48  93 VRB3      29.93R
DUBUQUE        CLOUDY    54  54 100 N13       29.89R
MONTICELLO *   CLOUDY    54  52  94 NW13G18   29.92R
OELWEIN *      LGT RAIN  50  50 100 NW8       29.95R
WATERLOO       LGT RAIN  49  48  97 W3        29.94S
$$

IAZ064-065-067-068-078-221100-
   EAST CENTRAL IOWA

CITY           SKY/WX    TMP DP  RH WIND       PRES   REMARKS
DAVENPORT      LGT RAIN  60  59  96 W15G21    29.89R
IOWA CITY      LGT RAIN  54  51  90 NW13      29.95R
MUSCATINE *    LGT RAIN  57  54  88 NW12      29.91R
QUAD CITIES    HVY RAIN  62  59  90 W7        29.87R FOG
$$

IAZ062-063-075>077-085>089-095>099-221100-
   SOUTHEAST IOWA

CITY           SKY/WX    TMP DP  RH WIND       PRES   REMARKS
BURLINGTON     LGT RAIN  56  55  97 NW12G21   29.88S
FAIRFIELD *    CLOUDY    52  48  87 NW14G21   29.94R
FORT MADISON * CLOUDY    55  55 100 NW13      29.91F
KEOKUK *       CLOUDY    55  54  94 NW13G21   29.90R
OSKALOOSA *    RAIN      49  48  94 N12       29.96F
OTTUMWA        RAIN      51  49  92 N10       29.97R
WASHINGTON *   RAIN      52  52 100 NW16      29.93F
$$

ABBREVIATIONS USED IN REMARKS
   TC - TEMPERATURES IN CELSIUS
  WCI - WIND CHILL INDEX
   HX - HEAT INDEX
  VSB - VISIBILITY
$$





USA.gov is the U.S. government's official web portal to all federal, state and local government web resources and services.